Akron, CO

10:23 PM MDT on July 22, 2017 (GMT -0600)
Akron-Washington County

Weather History for KAKO - September, 2014

Change the Weather History Date:

Monday, September 1, 2014

  Actual Average Record
Temperature  
Mean Temperature 65 °F 69 °F  
Max Temperature 79 °F 83 °F 98 °F (1995)
Min Temperature 50 °F 55 °F 40 °F (1952)
Degree Days  
Heating Degree Days 0    
Month to date heating degree days 0  
Cooling Degree Days 0    
Month to date cooling degree days 0  
Growing Degree Days 14 (Base 50)    
Moisture  
Dew Point 45 °F    
Average Humidity 56    
Maximum Humidity 89    
Minimum Humidity 23    
Precipitation  
Precipitation 0.00 in 0.05 in 1.23 in (1951)
Month to date precipitation 0.00 0.05  
Year to date precipitation 15.60 13.54  
Sea Level Pressure  
Sea Level Pressure 29.90 in    
Wind  
Wind Speed 7 mph (West)    
Max Wind Speed 12 mph    
Max Gust Speed 13 mph    
Visibility 10 miles    
Events      
T = Trace of Precipitation, MM = Missing Value Source: NWS Daily Summary

Daily Weather History Graph

Daily Weather History Graph

Search for Another Location

Airport or City:

Trip Planner

Search our weather history database for the weather conditions in past years. The results will help you decide how hot, cold, wet, or windy it might be!

Date:

Astronomy

Sep. 01, 2014 Rise Set
Actual Time 6:20 AM MDT 7:24 PM MDT
Civil Twilight 5:52 AM MDT 7:52 PM MDT
Nautical Twilight 5:19 AM MDT 8:25 PM MDT
Astronomical Twilight 4:44 AM MDT 8:59 PM MDT
Moon 1:08 PM MDT (9/1) 11:27 PM MDT (9/1)
Length of Visible Light 13h 59m
Length of Day
13h 03m
Waxing Crescent, 43% of the Moon is Illuminated
Sep 1
Waxing Crescent
Sep 2
First Quarter
Sep 8
Full
Sep 15
Last Quarter
Sep 24
New

Hourly Weather History & Observations

Time (MDT) Temp. Dew Point Humidity Pressure Visibility Wind Dir Wind Speed Gust Speed Precip Events Conditions
12:53 AM 52.0 °F 46.0 °F 80% 29.88 in 10.0 mi NNW 6.9 mph - N/A   Clear
1:53 AM 51.1 °F 46.9 °F 86% 29.89 in 10.0 mi NW 9.2 mph - N/A   Clear
2:53 AM 51.1 °F 45.0 °F 80% 29.91 in 10.0 mi NW 9.2 mph - N/A   Partly Cloudy
3:53 AM 54.0 °F 46.9 °F 77% 29.91 in 10.0 mi NW 4.6 mph - N/A   Overcast
4:53 AM 53.1 °F 46.9 °F 80% 29.91 in 10.0 mi WSW 5.8 mph - N/A   Mostly Cloudy
5:53 AM 52.0 °F 48.0 °F 86% 29.92 in 10.0 mi West 5.8 mph - N/A   Overcast
6:53 AM 53.1 °F 48.0 °F 83% 29.94 in 10.0 mi West 8.1 mph - N/A   Mostly Cloudy
7:53 AM 59.0 °F 48.0 °F 67% 29.94 in 10.0 mi West 6.9 mph - N/A   Mostly Cloudy
9:53 AM 62.1 °F 48.0 °F 60% 29.96 in 10.0 mi WSW 5.8 mph - N/A   Overcast
10:53 AM 64.9 °F 48.0 °F 54% 29.96 in 10.0 mi SW 9.2 mph - N/A   Overcast
11:53 AM 70.0 °F 48.0 °F 46% 29.93 in 10.0 mi SSW 6.9 mph - N/A   Scattered Clouds
12:53 PM 73.9 °F 48.0 °F 40% 29.91 in 10.0 mi North - - N/A   Partly Cloudy
1:53 PM 75.9 °F 41.0 °F 29% 29.88 in 10.0 mi North - - N/A   Clear
2:53 PM 77.0 °F 39.0 °F 25% 29.86 in 10.0 mi North - - N/A   Clear
3:53 PM 78.1 °F 37.9 °F 24% 29.83 in 10.0 mi North - - N/A   Clear
4:53 PM 78.1 °F 39.0 °F 25% 29.82 in 10.0 mi North - - N/A   Clear
5:53 PM 78.1 °F 41.0 °F 27% 29.84 in 10.0 mi North - - N/A   Clear
6:53 PM 75.9 °F 43.0 °F 31% 29.85 in 10.0 mi North - - N/A   Clear
7:53 PM 69.1 °F 46.9 °F 45% 29.87 in 10.0 mi North - - N/A   Partly Cloudy
8:53 PM 68.0 °F 48.9 °F 50% 29.90 in 10.0 mi North - - N/A   Clear
9:53 PM 66.0 °F 48.0 °F 52% 29.92 in 10.0 mi North - - N/A   Clear
10:53 PM 57.0 °F 46.9 °F 69% 29.99 in 10.0 mi North - - N/A   Clear
11:53 PM 55.0 °F 45.0 °F 69% 29.99 in 10.0 mi North - - N/A   Clear